PBD3201 UNKL-UNNT

Flight info

Callsign PBD3201
Flight time N/A
Altitude 36000
Route APRUS2F APRUS B926 NATIR NATIR1N
Aircraft B738/M-SDE2E3FGHIRWXY/LB1

Departure

Time 2026-05-01 14:52
Airport Krasnoyarsk International Airport (UNKL)

Arrival

Time N/A
Airport Novosibirsk Tolmachevo Airport (UNNT)
Time Latitude Longitude Altitude Speed Heading
2026-05-01 14:05 56.18034 92.47662 950 ft 0 kts 202°
2026-05-01 14:37 56.18040 92.47667 949 ft 2 kts 199°
2026-05-01 14:37 56.18056 92.47676 950 ft 2 kts 195°
2026-05-01 14:38 56.18072 92.47682 949 ft 2 kts 180°
2026-05-01 14:38 56.18088 92.47676 949 ft 2 kts 137°
2026-05-01 14:38 56.18097 92.47655 950 ft 1 kts 112°
2026-05-01 14:38 56.18098 92.47650 950 ft 0 kts 111°
2026-05-01 14:42 56.18095 92.47665 950 ft 3 kts 111°
2026-05-01 14:42 56.18080 92.47733 949 ft 10 kts 113°
2026-05-01 14:42 56.18040 92.47897 950 ft 15 kts 113°
2026-05-01 14:43 56.18006 92.47987 950 ft 8 kts 159°
2026-05-01 14:43 56.17954 92.47962 950 ft 8 kts 201°
2026-05-01 14:43 56.17906 92.47924 950 ft 8 kts 201°
2026-05-01 14:43 56.17860 92.47943 948 ft 7 kts 138°
2026-05-01 14:44 56.17829 92.48016 949 ft 7 kts 116°
2026-05-01 14:44 56.17790 92.48176 950 ft 7 kts 113°
2026-05-01 14:44 56.17769 92.48265 950 ft 8 kts 112°
2026-05-01 14:45 56.17744 92.48370 949 ft 10 kts 113°
2026-05-01 14:45 56.17656 92.48738 948 ft 22 kts 113°
2026-05-01 14:45 56.17590 92.49010 950 ft 25 kts 117°
2026-05-01 14:46 56.17518 92.49318 950 ft 27 kts 114°
2026-05-01 14:46 56.17379 92.49897 949 ft 23 kts 113°
2026-05-01 14:46 56.17316 92.50160 950 ft 23 kts 113°
2026-05-01 14:47 56.17264 92.50375 950 ft 9 kts 118°
2026-05-01 14:47 56.17210 92.50410 950 ft 9 kts 191°
2026-05-01 14:47 56.17159 92.50380 950 ft 0 kts 201°
2026-05-01 14:49 56.17093 92.50329 949 ft 7 kts 214°
2026-05-01 14:49 56.17077 92.50235 948 ft 0 kts 290°
2026-05-01 14:50 56.17077 92.50233 948 ft 1 kts 290°
2026-05-01 14:51 56.17100 92.50131 947 ft 28 kts 294°
2026-05-01 14:51 56.17622 92.47941 952 ft 153 kts 293°
2026-05-01 14:52 56.18530 92.44154 2113 ft 169 kts 291°
2026-05-01 14:52 56.18975 92.42196 2843 ft 173 kts 292°
2026-05-01 14:52 56.20075 92.37597 3449 ft 227 kts 293°
2026-05-01 14:53 56.20724 92.34857 3699 ft 250 kts 292°
2026-05-01 14:53 56.21424 92.31878 4190 ft 264 kts 290°
2026-05-01 14:53 56.21674 92.28611 4982 ft 269 kts 262°
2026-05-01 14:53 56.21151 92.25414 5966 ft 266 kts 249°
2026-05-01 14:54 56.20447 92.22326 6825 ft 269 kts 249°
2026-05-01 14:54 56.19749 92.19198 7659 ft 271 kts 249°
2026-05-01 14:54 56.19061 92.16087 8504 ft 273 kts 249°
2026-05-01 14:54 56.18353 92.12904 8893 ft 276 kts 250°
2026-05-01 14:55 56.17647 92.09678 9269 ft 278 kts 250°
2026-05-01 14:55 56.16937 92.06424 10073 ft 281 kts 250°
2026-05-01 14:55 56.16224 92.03159 10890 ft 282 kts 251°
2026-05-01 14:55 56.15504 91.99868 11667 ft 285 kts 251°
2026-05-01 14:56 56.14775 91.96545 12449 ft 288 kts 251°
2026-05-01 14:56 56.14037 91.93183 13272 ft 291 kts 252°
2026-05-01 14:56 56.13289 91.89790 14079 ft 294 kts 252°
2026-05-01 14:56 56.12532 91.86358 14829 ft 298 kts 252°
2026-05-01 14:57 56.11744 91.82781 15104 ft 320 kts 252°
2026-05-01 14:57 56.10003 91.74895 15769 ft 354 kts 251°
2026-05-01 14:57 56.09085 91.70780 16507 ft 357 kts 252°
2026-05-01 14:58 56.08161 91.66646 17301 ft 359 kts 252°
2026-05-01 14:58 56.07226 91.62472 18038 ft 363 kts 252°
2026-05-01 14:58 56.06283 91.58259 18696 ft 366 kts 252°
2026-05-01 14:58 56.05329 91.54006 19308 ft 370 kts 252°
2026-05-01 14:59 56.04364 91.49714 19926 ft 374 kts 252°
2026-05-01 14:59 56.03403 91.45445 20530 ft 377 kts 252°
2026-05-01 14:59 56.02419 91.41080 21128 ft 380 kts 252°
2026-05-01 14:59 56.01424 91.36677 21712 ft 384 kts 252°
2026-05-01 15:00 55.99403 91.27759 22876 ft 391 kts 252°
2026-05-01 15:00 55.98388 91.23231 23446 ft 393 kts 254°
2026-05-01 15:00 55.97655 91.18541 23927 ft 393 kts 261°
2026-05-01 15:01 55.97089 91.13750 24416 ft 395 kts 262°
2026-05-01 15:01 55.96566 91.08935 24918 ft 396 kts 263°
2026-05-01 15:01 55.96045 91.04090 25377 ft 398 kts 263°
2026-05-01 15:01 55.95508 90.99224 25840 ft 401 kts 263°
2026-05-01 15:02 55.94953 90.94331 26287 ft 403 kts 262°
2026-05-01 15:02 55.94770 90.92741 26432 ft 404 kts 262°
2026-05-01 15:02 55.93800 90.84480 27173 ft 408 kts 262°
2026-05-01 15:02 55.93409 90.81203 27449 ft 409 kts 262°
2026-05-01 15:03 55.92812 90.76227 27871 ft 412 kts 262°
2026-05-01 15:03 55.92208 90.71219 28270 ft 414 kts 262°
2026-05-01 15:03 55.91598 90.66189 28670 ft 416 kts 262°
2026-05-01 15:03 55.90981 90.61124 29072 ft 418 kts 262°
2026-05-01 15:04 55.90361 90.56044 29449 ft 421 kts 262°
2026-05-01 15:04 55.89532 90.49287 30031 ft 421 kts 262°
2026-05-01 15:04 55.89109 90.45857 30389 ft 419 kts 262°
2026-05-01 15:04 55.88484 90.40805 30885 ft 416 kts 262°
2026-05-01 15:05 55.87872 90.35874 31313 ft 415 kts 262°
2026-05-01 15:05 55.87312 90.31371 31668 ft 414 kts 262°
2026-05-01 15:05 55.86687 90.26361 32054 ft 414 kts 262°
2026-05-01 15:05 55.86071 90.21433 32476 ft 412 kts 262°
2026-05-01 15:06 55.85447 90.16469 32925 ft 410 kts 262°
2026-05-01 15:06 55.84824 90.11526 33367 ft 408 kts 262°
2026-05-01 15:06 55.84200 90.06594 33766 ft 407 kts 262°
2026-05-01 15:06 55.83578 90.01689 34149 ft 406 kts 263°
2026-05-01 15:07 55.82955 89.96798 34487 ft 405 kts 262°
2026-05-01 15:07 55.82331 89.91909 34766 ft 405 kts 262°
2026-05-01 15:07 55.81704 89.87013 35034 ft 406 kts 262°
2026-05-01 15:07 55.81075 89.82125 35324 ft 406 kts 262°
2026-05-01 15:08 55.80444 89.77237 35627 ft 405 kts 262°
2026-05-01 15:08 55.80027 89.74015 35818 ft 405 kts 262°
2026-05-01 15:08 55.79394 89.69140 36082 ft 406 kts 262°
2026-05-01 15:09 55.78107 89.59262 36081 ft 412 kts 262°
2026-05-01 15:09 55.76820 89.49476 36070 ft 406 kts 262°
2026-05-01 15:10 55.75527 89.39712 36089 ft 403 kts 262°
2026-05-01 15:10 55.73588 89.25158 36085 ft 405 kts 262°
2026-05-01 15:11 55.71635 89.10640 36086 ft 405 kts 261°
2026-05-01 15:12 55.70317 89.00921 36085 ft 406 kts 261°
2026-05-01 15:12 55.68325 88.86327 36083 ft 406 kts 261°
2026-05-01 15:14 55.64974 88.61998 36080 ft 407 kts 261°
2026-05-01 15:14 55.62938 88.47402 36087 ft 407 kts 260°
2026-05-01 15:15 55.60193 88.27939 36077 ft 407 kts 260°
2026-05-01 15:16 55.57428 88.08583 36078 ft 407 kts 259°
2026-05-01 15:18 55.53921 87.84364 36063 ft 407 kts 259°
2026-05-01 15:19 55.51084 87.65026 36065 ft 407 kts 259°
2026-05-01 15:19 55.48934 87.50548 36060 ft 407 kts 258°
2026-05-01 15:20 55.46751 87.36086 36046 ft 407 kts 258°
2026-05-01 15:21 55.45287 87.26453 36059 ft 407 kts 258°
2026-05-01 15:21 55.43815 87.16810 36052 ft 408 kts 258°
2026-05-01 15:22 55.41588 87.02332 36045 ft 409 kts 258°
2026-05-01 15:22 55.40102 86.92742 36044 ft 409 kts 258°
2026-05-01 15:23 55.38595 86.83068 36041 ft 410 kts 257°
2026-05-01 15:23 55.37081 86.73407 36046 ft 410 kts 257°
2026-05-01 15:24 55.35558 86.63746 36041 ft 411 kts 257°
2026-05-01 15:24 55.34024 86.54071 36043 ft 411 kts 257°
2026-05-01 15:25 55.32480 86.44386 36041 ft 412 kts 257°
2026-05-01 15:25 55.30927 86.34698 36045 ft 412 kts 256°
2026-05-01 15:26 55.29375 86.25071 36052 ft 413 kts 256°
2026-05-01 15:26 55.27803 86.15371 36047 ft 413 kts 256°
2026-05-01 15:27 55.26721 86.05533 36058 ft 410 kts 266°
2026-05-01 15:28 55.26059 85.90564 36048 ft 411 kts 267°
2026-05-01 15:28 55.25596 85.80557 35822 ft 414 kts 266°
2026-05-01 15:29 55.25106 85.70566 35308 ft 406 kts 266°
2026-05-01 15:29 55.24865 85.65776 35065 ft 401 kts 266°
2026-05-01 15:29 55.24373 85.56100 34565 ft 397 kts 266°
2026-05-01 15:30 55.23878 85.46531 34047 ft 391 kts 266°
2026-05-01 15:31 55.22895 85.27899 32464 ft 383 kts 265°
2026-05-01 15:31 55.22394 85.18608 31658 ft 381 kts 265°
2026-05-01 15:32 55.21893 85.09452 30893 ft 375 kts 265°
2026-05-01 15:32 55.21397 85.00499 30130 ft 369 kts 264°
2026-05-01 15:33 55.20649 84.87234 28888 ft 360 kts 264°
2026-05-01 15:34 55.19906 84.74273 27693 ft 353 kts 264°